Year,Month,Day,Hour,Minute,Value (Times are PST for temperature in C)
2010,07,21,00,00,14.40
2010,07,21,00,01,14.40
2010,07,21,00,02,14.40
2010,07,21,00,03,14.40
2010,07,21,00,04,14.30
2010,07,21,00,05,14.30
2010,07,21,00,06,14.30
2010,07,21,00,07,14.30
2010,07,21,00,08,14.30
2010,07,21,00,09,14.30
2010,07,21,00,10,14.30
2010,07,21,00,11,14.30
2010,07,21,00,12,14.30
2010,07,21,00,13,14.20
2010,07,21,00,14,14.20
2010,07,21,00,15,14.20
2010,07,21,00,16,14.20
2010,07,21,00,17,14.20
2010,07,21,00,18,14.20
2010,07,21,00,19,14.20
2010,07,21,00,20,14.20
2010,07,21,00,21,14.20
2010,07,21,00,22,14.20
2010,07,21,00,23,14.20
2010,07,21,00,24,14.20
2010,07,21,00,25,14.20
2010,07,21,00,26,14.20
2010,07,21,00,27,14.20
2010,07,21,00,28,14.20
2010,07,21,00,29,14.20
2010,07,21,00,30,14.20
2010,07,21,00,31,14.20
2010,07,21,00,32,14.30
2010,07,21,00,33,14.30
2010,07,21,00,34,14.30
2010,07,21,00,35,14.30
2010,07,21,00,36,14.30
2010,07,21,00,37,14.30
2010,07,21,00,38,14.30
2010,07,21,00,39,14.30
2010,07,21,00,40,14.30
2010,07,21,00,41,14.30
2010,07,21,00,42,14.30
2010,07,21,00,43,14.30
2010,07,21,00,44,14.30
2010,07,21,00,45,14.30
2010,07,21,00,46,14.30
2010,07,21,00,47,14.30
2010,07,21,00,48,14.30
2010,07,21,00,49,14.30
2010,07,21,00,50,14.30
2010,07,21,00,51,14.30
2010,07,21,00,52,14.30
2010,07,21,00,53,14.30
2010,07,21,00,54,14.30
2010,07,21,00,55,14.30
2010,07,21,00,56,14.30
2010,07,21,00,57,14.30
2010,07,21,00,58,14.30
2010,07,21,00,59,14.30
2010,07,21,01,00,14.40
2010,07,21,01,01,14.40
2010,07,21,01,02,14.40
2010,07,21,01,03,14.50
2010,07,21,01,04,14.50
2010,07,21,01,05,14.60
2010,07,21,01,06,14.70
2010,07,21,01,07,14.80
2010,07,21,01,08,15.00
2010,07,21,01,09,15.20
2010,07,21,01,10,15.40
2010,07,21,01,11,15.60
2010,07,21,01,12,15.80
2010,07,21,01,13,16.00
2010,07,21,01,14,16.20
2010,07,21,01,15,16.50
2010,07,21,01,16,16.70
2010,07,21,01,17,16.90
2010,07,21,01,18,17.10
2010,07,21,01,19,17.20
2010,07,21,01,20,17.40
2010,07,21,01,21,17.50
2010,07,21,01,22,17.70
2010,07,21,01,23,17.80
2010,07,21,01,24,18.00
2010,07,21,01,25,18.10
2010,07,21,01,26,18.20
2010,07,21,01,27,18.30
2010,07,21,01,28,18.30
2010,07,21,01,29,18.40
2010,07,21,01,30,18.40
2010,07,21,01,31,18.40
2010,07,21,01,32,18.50
2010,07,21,01,33,18.50
2010,07,21,01,34,18.50
2010,07,21,01,35,18.50
2010,07,21,01,36,18.60
2010,07,21,01,37,18.60
2010,07,21,01,38,18.60
2010,07,21,01,39,18.60
2010,07,21,01,40,18.60
2010,07,21,01,41,18.60
2010,07,21,01,42,18.60
2010,07,21,01,43,18.60
2010,07,21,01,44,18.60
2010,07,21,01,45,18.60
2010,07,21,01,46,18.60
2010,07,21,01,47,18.60
2010,07,21,01,48,18.60
2010,07,21,01,49,18.60
2010,07,21,01,50,18.50
2010,07,21,01,51,18.50
2010,07,21,01,52,18.40
2010,07,21,01,53,18.40
2010,07,21,01,54,18.40
2010,07,21,01,55,18.40
2010,07,21,01,56,18.30
2010,07,21,01,57,18.30
2010,07,21,01,58,18.30
2010,07,21,01,59,18.30
2010,07,21,02,00,18.30
2010,07,21,02,01,18.40
2010,07,21,02,02,18.40
2010,07,21,02,03,18.50
2010,07,21,02,04,18.50
2010,07,21,02,05,18.50
2010,07,21,02,06,18.60
2010,07,21,02,07,18.60
2010,07,21,02,08,18.60
2010,07,21,02,09,18.60
2010,07,21,02,10,18.60
2010,07,21,02,11,18.60
2010,07,21,02,12,18.50
2010,07,21,02,13,18.50
2010,07,21,02,14,18.40
2010,07,21,02,15,18.40
2010,07,21,02,16,18.40
2010,07,21,02,17,18.40
2010,07,21,02,18,18.30
2010,07,21,02,19,18.30
2010,07,21,02,20,18.30
2010,07,21,02,21,18.40
2010,07,21,02,22,18.40
2010,07,21,02,23,18.40
2010,07,21,02,24,18.40
2010,07,21,02,25,18.50
2010,07,21,02,26,18.50
2010,07,21,02,27,18.60
2010,07,21,02,28,18.60
2010,07,21,02,29,18.60
2010,07,21,02,30,18.60
2010,07,21,02,31,18.60
2010,07,21,02,32,18.60
2010,07,21,02,33,18.70
2010,07,21,02,34,18.70
2010,07,21,02,35,18.70
2010,07,21,02,36,18.70
2010,07,21,02,37,18.70
2010,07,21,02,38,18.70
2010,07,21,02,39,18.60
2010,07,21,02,40,18.60
2010,07,21,02,41,18.60
2010,07,21,02,42,18.50
2010,07,21,02,43,18.50
2010,07,21,02,44,18.50
2010,07,21,02,45,18.50
2010,07,21,02,46,18.50
2010,07,21,02,47,18.50
2010,07,21,02,48,18.60
2010,07,21,02,49,18.60
2010,07,21,02,50,18.60
2010,07,21,02,51,18.60
2010,07,21,02,52,18.60
2010,07,21,02,53,18.60
2010,07,21,02,54,18.60
2010,07,21,02,55,18.60
2010,07,21,02,56,18.60
2010,07,21,02,57,18.60
2010,07,21,02,58,18.60
2010,07,21,02,59,18.60
2010,07,21,03,00,18.60
2010,07,21,03,01,18.60
2010,07,21,03,02,18.60
2010,07,21,03,03,18.60
2010,07,21,03,04,18.60
2010,07,21,03,05,18.60
2010,07,21,03,06,18.70
2010,07,21,03,07,18.70
2010,07,21,03,08,18.70
2010,07,21,03,09,18.80
2010,07,21,03,10,18.80
2010,07,21,03,11,18.90
2010,07,21,03,12,19.00
2010,07,21,03,13,19.00
2010,07,21,03,14,19.10
2010,07,21,03,15,19.10
2010,07,21,03,16,19.10
2010,07,21,03,17,19.20
2010,07,21,03,18,19.20
2010,07,21,03,19,19.20
2010,07,21,03,20,19.10
2010,07,21,03,21,19.10
2010,07,21,03,22,19.10
2010,07,21,03,23,19.10
2010,07,21,03,24,19.10
2010,07,21,03,25,19.00
2010,07,21,03,26,19.00
2010,07,21,03,27,19.00
2010,07,21,03,28,18.90
2010,07,21,03,29,18.90
2010,07,21,03,30,18.90
2010,07,21,03,31,18.80
2010,07,21,03,32,18.80
2010,07,21,03,33,18.80
2010,07,21,03,34,18.80
2010,07,21,03,35,18.70
2010,07,21,03,36,18.70
2010,07,21,03,37,18.70
2010,07,21,03,38,18.70
2010,07,21,03,39,18.60
2010,07,21,03,40,18.60
2010,07,21,03,41,18.60
2010,07,21,03,42,18.60
2010,07,21,03,43,18.60
2010,07,21,03,44,18.50
2010,07,21,03,45,18.50
2010,07,21,03,46,18.50
2010,07,21,03,47,18.40
2010,07,21,03,48,18.40
2010,07,21,03,49,18.40
2010,07,21,03,50,18.40
2010,07,21,03,51,18.30
2010,07,21,03,52,18.30
2010,07,21,03,53,18.30
2010,07,21,03,54,18.20
2010,07,21,03,55,18.20
2010,07,21,03,56,18.10
2010,07,21,03,57,18.10
2010,07,21,03,58,18.10
2010,07,21,03,59,18.00
2010,07,21,04,00,18.00
2010,07,21,04,01,17.90
2010,07,21,04,02,17.90
2010,07,21,04,03,17.80
2010,07,21,04,04,17.80
2010,07,21,04,05,17.80
2010,07,21,04,06,17.70
2010,07,21,04,07,17.70
2010,07,21,04,08,17.70
2010,07,21,04,09,17.70
2010,07,21,04,10,17.70
2010,07,21,04,11,17.70
2010,07,21,04,12,17.70
2010,07,21,04,13,17.70
2010,07,21,04,14,17.70
2010,07,21,04,15,17.70
2010,07,21,04,16,17.70
2010,07,21,04,17,17.70
2010,07,21,04,18,17.70
2010,07,21,04,19,17.70
2010,07,21,04,20,17.70
2010,07,21,04,21,17.60
2010,07,21,04,22,17.60
2010,07,21,04,23,17.60
2010,07,21,04,24,17.60
2010,07,21,04,25,17.60
2010,07,21,04,26,17.50
2010,07,21,04,27,17.50
2010,07,21,04,28,17.40
2010,07,21,04,29,17.40
2010,07,21,04,30,17.40
2010,07,21,04,31,17.40
2010,07,21,04,32,17.40
2010,07,21,04,33,17.40
2010,07,21,04,34,17.40
2010,07,21,04,35,17.40
2010,07,21,04,36,17.40
2010,07,21,04,37,17.40
2010,07,21,04,38,17.40
2010,07,21,04,39,17.40
2010,07,21,04,40,17.40
2010,07,21,04,41,17.30
2010,07,21,04,42,17.30
2010,07,21,04,43,17.30
2010,07,21,04,44,17.30
2010,07,21,04,45,17.30
2010,07,21,04,46,17.20
2010,07,21,04,47,17.20
2010,07,21,04,48,17.20
2010,07,21,04,49,17.20
2010,07,21,04,50,17.20
2010,07,21,04,51,17.20
2010,07,21,04,52,17.20
2010,07,21,04,53,17.20
2010,07,21,04,54,17.20
2010,07,21,04,55,17.10
2010,07,21,04,56,17.10
2010,07,21,04,57,17.10
2010,07,21,04,58,17.10
2010,07,21,04,59,17.20
2010,07,21,05,00,17.20
2010,07,21,05,01,17.20
2010,07,21,05,02,17.20
2010,07,21,05,03,17.20
2010,07,21,05,04,17.20
2010,07,21,05,05,17.20
2010,07,21,05,06,17.20
2010,07,21,05,07,17.20
2010,07,21,05,08,17.20
2010,07,21,05,09,17.20
2010,07,21,05,10,17.10
2010,07,21,05,11,17.10
2010,07,21,05,12,17.10
2010,07,21,05,13,17.10
2010,07,21,05,14,17.00
2010,07,21,05,15,17.00
2010,07,21,05,16,17.00
2010,07,21,05,17,17.00
2010,07,21,05,18,17.00
2010,07,21,05,19,17.00
2010,07,21,05,20,17.00
2010,07,21,05,21,17.00
2010,07,21,05,22,17.00
2010,07,21,05,23,17.00
2010,07,21,05,24,17.10
2010,07,21,05,25,17.10
2010,07,21,05,26,17.10
2010,07,21,05,27,17.20
2010,07,21,05,28,17.20
2010,07,21,05,29,17.20
2010,07,21,05,30,17.20
2010,07,21,05,31,17.30
2010,07,21,05,32,17.30
2010,07,21,05,33,17.30
2010,07,21,05,34,17.30
2010,07,21,05,35,17.30
2010,07,21,05,36,17.30
2010,07,21,05,37,17.30
2010,07,21,05,38,17.40
2010,07,21,05,39,17.40
2010,07,21,05,40,17.40
2010,07,21,05,41,17.40
2010,07,21,05,42,17.40
2010,07,21,05,43,17.40
2010,07,21,05,44,17.40
2010,07,21,05,45,17.50
2010,07,21,05,46,17.50
2010,07,21,05,47,17.50
2010,07,21,05,48,17.50
2010,07,21,05,49,17.50
2010,07,21,05,50,17.60
2010,07,21,05,51,17.60
2010,07,21,05,52,17.60
2010,07,21,05,53,17.60
2010,07,21,05,54,17.60
2010,07,21,05,55,17.60
2010,07,21,05,56,17.60
2010,07,21,05,57,17.60
2010,07,21,05,58,17.60
2010,07,21,05,59,17.60
2010,07,21,06,00,17.50
2010,07,21,06,01,17.50
2010,07,21,06,02,17.50
2010,07,21,06,03,17.40
2010,07,21,06,04,17.40
2010,07,21,06,05,17.40
2010,07,21,06,06,17.40
2010,07,21,06,07,17.40
2010,07,21,06,08,17.40
2010,07,21,06,09,17.40
2010,07,21,06,10,17.40
2010,07,21,06,11,17.50
2010,07,21,06,12,17.50
2010,07,21,06,13,17.50
2010,07,21,06,14,17.50
2010,07,21,06,15,17.50
2010,07,21,06,16,17.50
2010,07,21,06,17,17.60
2010,07,21,06,18,17.60
2010,07,21,06,19,17.60
2010,07,21,06,20,17.60
2010,07,21,06,21,17.70
2010,07,21,06,22,17.70
2010,07,21,06,23,17.80
2010,07,21,06,24,17.80
2010,07,21,06,25,17.90
2010,07,21,06,26,17.90
2010,07,21,06,27,18.00
2010,07,21,06,28,18.10
2010,07,21,06,29,18.10
2010,07,21,06,30,18.20
2010,07,21,06,31,18.30
2010,07,21,06,32,18.40
2010,07,21,06,33,18.40
2010,07,21,06,34,18.50
2010,07,21,06,35,18.50
2010,07,21,06,36,18.60
2010,07,21,06,37,18.60
2010,07,21,06,38,18.70
2010,07,21,06,39,18.70
2010,07,21,06,40,18.80
2010,07,21,06,41,18.80
2010,07,21,06,42,18.80
2010,07,21,06,43,18.80
2010,07,21,06,44,18.80
2010,07,21,06,45,18.90
2010,07,21,06,46,18.90
2010,07,21,06,47,18.80
2010,07,21,06,48,18.80
2010,07,21,06,49,18.80
2010,07,21,06,50,18.80
2010,07,21,06,51,18.80
2010,07,21,06,52,18.70
2010,07,21,06,53,18.70
2010,07,21,06,54,18.60
2010,07,21,06,55,18.60
2010,07,21,06,56,18.60
2010,07,21,06,57,18.60
2010,07,21,06,58,18.60
2010,07,21,06,59,18.60
2010,07,21,07,00,18.60
2010,07,21,07,01,18.60
2010,07,21,07,02,18.60
2010,07,21,07,03,18.60
2010,07,21,07,04,18.60
2010,07,21,07,05,18.60
2010,07,21,07,06,18.60
2010,07,21,07,07,18.60
2010,07,21,07,08,18.60
2010,07,21,07,09,18.70
2010,07,21,07,10,18.70
2010,07,21,07,11,18.70
2010,07,21,07,12,18.80
2010,07,21,07,13,18.80
2010,07,21,07,14,18.80
2010,07,21,07,15,18.80
2010,07,21,07,16,18.80
2010,07,21,07,17,18.80
2010,07,21,07,18,18.80
2010,07,21,07,19,18.80
2010,07,21,07,20,18.90
2010,07,21,07,21,18.90
2010,07,21,07,22,18.90
2010,07,21,07,23,18.90
2010,07,21,07,24,19.00
2010,07,21,07,25,19.00
2010,07,21,07,26,19.10
2010,07,21,07,27,19.10
2010,07,21,07,28,19.10
2010,07,21,07,29,19.20
2010,07,21,07,30,19.20
2010,07,21,07,31,19.20
2010,07,21,07,32,19.30
2010,07,21,07,33,19.30
2010,07,21,07,34,19.30
2010,07,21,07,35,19.40
2010,07,21,07,36,19.40
2010,07,21,07,37,19.40
2010,07,21,07,38,19.40
2010,07,21,07,39,19.40
2010,07,21,07,40,19.40
2010,07,21,07,41,19.40
2010,07,21,07,42,19.40
2010,07,21,07,43,19.40
2010,07,21,07,44,19.40
2010,07,21,07,45,19.50
2010,07,21,07,46,19.50
2010,07,21,07,47,19.50
2010,07,21,07,48,19.50
2010,07,21,07,49,19.50
2010,07,21,07,50,19.50
2010,07,21,07,51,19.50
2010,07,21,07,52,19.50
2010,07,21,07,53,19.50
2010,07,21,07,54,19.50
2010,07,21,07,55,19.40
2010,07,21,07,56,19.40
2010,07,21,07,57,19.50
2010,07,21,07,58,19.50
2010,07,21,07,59,19.50
2010,07,21,08,00,19.50
2010,07,21,08,01,19.40
2010,07,21,08,02,19.40
2010,07,21,08,03,19.30
2010,07,21,08,04,19.30
2010,07,21,08,05,19.30
2010,07,21,08,06,19.20
2010,07,21,08,07,19.20
2010,07,21,08,08,19.30
2010,07,21,08,09,19.30
2010,07,21,08,10,19.20
2010,07,21,08,11,19.20
2010,07,21,08,12,19.20
2010,07,21,08,13,19.20
2010,07,21,08,14,19.20
2010,07,21,08,15,19.30
2010,07,21,08,16,19.30
2010,07,21,08,17,19.40
2010,07,21,08,18,19.40
2010,07,21,08,19,19.40
2010,07,21,08,20,19.50
2010,07,21,08,21,19.50
2010,07,21,08,22,19.60
2010,07,21,08,23,19.60
2010,07,21,08,24,19.70
2010,07,21,08,25,19.70
2010,07,21,08,26,19.70
2010,07,21,08,27,19.80
2010,07,21,08,28,19.80
2010,07,21,08,29,19.80
2010,07,21,08,30,19.80
2010,07,21,08,31,19.80
2010,07,21,08,32,19.80
2010,07,21,08,33,19.80
2010,07,21,08,34,19.90
2010,07,21,08,35,19.90
2010,07,21,08,36,19.90
2010,07,21,08,37,19.90
2010,07,21,08,38,19.90
2010,07,21,08,39,19.90
2010,07,21,08,40,19.90
2010,07,21,08,41,19.90
2010,07,21,08,42,19.90
2010,07,21,08,43,20.00
2010,07,21,08,44,19.90
2010,07,21,08,45,19.90
2010,07,21,08,46,19.90
2010,07,21,08,47,19.90
2010,07,21,08,48,19.90
2010,07,21,08,49,19.90
2010,07,21,08,50,19.90
2010,07,21,08,51,19.80
2010,07,21,08,52,19.80
2010,07,21,08,53,19.80
2010,07,21,08,54,19.80
2010,07,21,08,55,19.80
2010,07,21,08,56,19.90
2010,07,21,08,57,19.90
2010,07,21,08,58,19.90
2010,07,21,08,59,19.90
2010,07,21,09,00,20.00
2010,07,21,09,01,20.10
2010,07,21,09,02,20.10
2010,07,21,09,03,20.10
2010,07,21,09,04,20.20
2010,07,21,09,05,20.20
2010,07,21,09,06,20.10
2010,07,21,09,07,20.10
2010,07,21,09,08,20.00
2010,07,21,09,09,20.00
2010,07,21,09,10,20.00
2010,07,21,09,11,20.00
2010,07,21,09,12,20.00
2010,07,21,09,13,20.10
2010,07,21,09,14,20.10
2010,07,21,09,15,20.10
2010,07,21,09,16,20.20
2010,07,21,09,17,20.20
2010,07,21,09,18,20.30
2010,07,21,09,19,20.30
2010,07,21,09,20,20.40
2010,07,21,09,21,20.40
2010,07,21,09,22,20.50
2010,07,21,09,23,20.50
2010,07,21,09,24,20.50
2010,07,21,09,25,20.50
2010,07,21,09,26,20.50
2010,07,21,09,27,20.50
2010,07,21,09,28,20.60
2010,07,21,09,29,20.60
2010,07,21,09,30,20.70
2010,07,21,09,31,20.70
2010,07,21,09,32,20.80
2010,07,21,09,33,20.80
2010,07,21,09,34,20.80
2010,07,21,09,35,20.80
2010,07,21,09,36,20.80
2010,07,21,09,37,20.80
2010,07,21,09,38,20.80
2010,07,21,09,39,20.90
2010,07,21,09,40,20.90
2010,07,21,09,41,20.80
2010,07,21,09,42,20.80
2010,07,21,09,43,20.90
2010,07,21,09,44,20.90
2010,07,21,09,45,20.90
2010,07,21,09,46,21.00
2010,07,21,09,47,21.00
2010,07,21,09,48,21.10
2010,07,21,09,49,21.10
2010,07,21,09,50,21.20
2010,07,21,09,51,21.20
2010,07,21,09,52,21.20
2010,07,21,09,53,21.00
2010,07,21,09,54,20.90
2010,07,21,09,55,20.80
2010,07,21,09,56,20.80
2010,07,21,09,57,20.80
2010,07,21,09,58,20.80
2010,07,21,09,59,20.80
2010,07,21,10,00,20.90
2010,07,21,10,01,20.90
2010,07,21,10,02,20.90
2010,07,21,10,03,20.90
2010,07,21,10,04,20.90
2010,07,21,10,05,20.90
2010,07,21,10,06,20.80
2010,07,21,10,07,20.80
2010,07,21,10,08,20.80
2010,07,21,10,09,20.80
2010,07,21,10,10,20.80
2010,07,21,10,11,20.80
2010,07,21,10,12,20.80
2010,07,21,10,13,20.80
2010,07,21,10,14,20.80
2010,07,21,10,15,20.80
2010,07,21,10,16,20.70
2010,07,21,10,17,20.70
2010,07,21,10,18,20.70
2010,07,21,10,19,20.60
2010,07,21,10,20,20.70
2010,07,21,10,21,20.70
2010,07,21,10,22,20.70
2010,07,21,10,23,20.80
2010,07,21,10,24,20.90
2010,07,21,10,25,20.90
2010,07,21,10,26,20.90
2010,07,21,10,27,21.00
2010,07,21,10,28,21.00
2010,07,21,10,29,21.10
2010,07,21,10,30,21.10
2010,07,21,10,31,21.10
2010,07,21,10,32,21.10
2010,07,21,10,33,21.10
2010,07,21,10,34,21.10
2010,07,21,10,35,21.00
2010,07,21,10,36,20.90
2010,07,21,10,37,20.90
2010,07,21,10,38,20.90
2010,07,21,10,39,20.90
2010,07,21,10,40,20.90
2010,07,21,10,41,20.90
2010,07,21,10,42,20.80
2010,07,21,10,43,20.80
2010,07,21,10,44,20.70
2010,07,21,10,45,20.80
2010,07,21,10,46,20.80
2010,07,21,10,47,20.80
2010,07,21,10,48,20.70
2010,07,21,10,49,20.70
2010,07,21,10,50,20.70
2010,07,21,10,51,20.80
2010,07,21,10,52,20.80
2010,07,21,10,53,20.80
2010,07,21,10,54,20.70
2010,07,21,10,55,20.70
2010,07,21,10,56,20.70
2010,07,21,10,57,20.60
2010,07,21,10,58,20.60
2010,07,21,10,59,20.50
2010,07,21,11,00,20.60
2010,07,21,11,01,20.60
2010,07,21,11,02,20.60
2010,07,21,11,03,20.70
2010,07,21,11,04,20.80
2010,07,21,11,05,20.80
2010,07,21,11,06,20.90
2010,07,21,11,07,21.00
2010,07,21,11,08,21.10
2010,07,21,11,09,21.10
2010,07,21,11,10,21.10
2010,07,21,11,11,21.10
2010,07,21,11,12,21.00
2010,07,21,11,13,21.00
2010,07,21,11,14,20.90
2010,07,21,11,15,20.90
2010,07,21,11,16,20.90
2010,07,21,11,17,21.00
2010,07,21,11,18,21.20
2010,07,21,11,19,21.30
2010,07,21,11,20,21.50
2010,07,21,11,21,21.50
2010,07,21,11,22,21.60
2010,07,21,11,23,21.70
2010,07,21,11,24,21.80
2010,07,21,11,25,21.80
2010,07,21,11,26,21.80
2010,07,21,11,27,21.80
2010,07,21,11,28,21.80
2010,07,21,11,29,21.80
2010,07,21,11,30,21.80
2010,07,21,11,31,21.90
2010,07,21,11,32,22.00
2010,07,21,11,33,22.10
2010,07,21,11,34,22.10
2010,07,21,11,35,22.10
2010,07,21,11,36,22.20
2010,07,21,11,37,22.20
2010,07,21,11,38,22.20
2010,07,21,11,39,22.20
2010,07,21,11,40,22.20
2010,07,21,11,41,22.20
2010,07,21,11,42,22.20
2010,07,21,11,43,22.20
2010,07,21,11,44,22.20
2010,07,21,11,45,22.20
2010,07,21,11,46,22.30
2010,07,21,11,47,22.30
2010,07,21,11,48,22.40
2010,07,21,11,49,22.40
2010,07,21,11,50,22.50
2010,07,21,11,51,22.50
2010,07,21,11,52,22.60
2010,07,21,11,53,22.70
2010,07,21,11,54,22.80
2010,07,21,11,55,22.80
2010,07,21,11,56,22.80
2010,07,21,11,57,22.80
2010,07,21,11,58,22.80
2010,07,21,11,59,22.80
2010,07,21,12,00,22.80
2010,07,21,12,01,22.80
2010,07,21,12,02,22.80
2010,07,21,12,03,22.80
2010,07,21,12,04,22.90
2010,07,21,12,05,23.00
2010,07,21,12,06,23.10
2010,07,21,12,07,23.10
2010,07,21,12,08,23.10
2010,07,21,12,09,23.00
2010,07,21,12,10,23.00
2010,07,21,12,11,22.90
2010,07,21,12,12,22.90
2010,07,21,12,13,22.90
2010,07,21,12,14,22.90
2010,07,21,12,15,23.10
2010,07,21,12,16,23.20
2010,07,21,12,17,23.30
2010,07,21,12,18,23.30
2010,07,21,12,19,23.50
2010,07,21,12,20,23.60
2010,07,21,12,21,23.60
2010,07,21,12,22,23.50
2010,07,21,12,23,23.50
2010,07,21,12,24,23.50
2010,07,21,12,25,23.60
2010,07,21,12,26,23.60
2010,07,21,12,27,23.60
2010,07,21,12,28,23.50
2010,07,21,12,29,23.40
2010,07,21,12,30,23.40
2010,07,21,12,31,23.40
2010,07,21,12,32,23.60
2010,07,21,12,33,23.70
2010,07,21,12,34,23.80
2010,07,21,12,35,23.80
2010,07,21,12,36,23.80
2010,07,21,12,37,23.80
2010,07,21,12,38,23.80
2010,07,21,12,39,23.80
2010,07,21,12,40,23.70
2010,07,21,12,41,23.60
2010,07,21,12,42,23.40
2010,07,21,12,43,23.40
2010,07,21,12,44,23.30
2010,07,21,12,45,23.30
2010,07,21,12,46,23.20
2010,07,21,12,47,23.20
2010,07,21,12,48,23.20
2010,07,21,12,49,23.20
2010,07,21,12,50,23.20
2010,07,21,12,51,23.20
2010,07,21,12,52,23.30
2010,07,21,12,53,23.40
2010,07,21,12,54,23.50
2010,07,21,12,55,23.50
2010,07,21,12,56,23.60
2010,07,21,12,57,23.60
2010,07,21,12,58,23.60
2010,07,21,12,59,23.60
2010,07,21,13,00,23.60
2010,07,21,13,01,23.50
2010,07,21,13,02,23.40
2010,07,21,13,03,23.40
2010,07,21,13,04,23.50
2010,07,21,13,05,23.60
2010,07,21,13,06,23.60
2010,07,21,13,07,23.70
2010,07,21,13,08,23.70
2010,07,21,13,09,23.80
2010,07,21,13,10,23.80
2010,07,21,13,11,23.80
2010,07,21,13,12,23.70
2010,07,21,13,13,23.70
2010,07,21,13,14,23.70
2010,07,21,13,15,23.70
2010,07,21,13,16,23.70
2010,07,21,13,17,23.70
2010,07,21,13,18,23.70
2010,07,21,13,19,23.80
2010,07,21,13,20,23.90
2010,07,21,13,21,24.00
2010,07,21,13,22,24.00
2010,07,21,13,23,24.00
2010,07,21,13,24,24.10
2010,07,21,13,25,24.10
2010,07,21,13,26,24.10
2010,07,21,13,27,24.20
2010,07,21,13,28,24.30
2010,07,21,13,29,24.30
2010,07,21,13,30,24.40
2010,07,21,13,31,24.40
2010,07,21,13,32,24.40
2010,07,21,13,33,24.40
2010,07,21,13,34,24.30
2010,07,21,13,35,24.30
2010,07,21,13,36,24.30
2010,07,21,13,37,24.30
2010,07,21,13,38,24.30
2010,07,21,13,39,24.40
2010,07,21,13,40,24.50
2010,07,21,13,41,24.50
2010,07,21,13,42,24.50
2010,07,21,13,43,24.50
2010,07,21,13,44,24.40
2010,07,21,13,45,24.50
2010,07,21,13,46,24.50
2010,07,21,13,47,24.50
2010,07,21,13,48,24.50
2010,07,21,13,49,24.60
2010,07,21,13,50,24.70
2010,07,21,13,51,24.70
2010,07,21,13,52,24.70
2010,07,21,13,53,24.70
2010,07,21,13,54,24.70
2010,07,21,13,55,24.80
2010,07,21,13,56,24.80
2010,07,21,13,57,24.80
2010,07,21,13,58,24.80
2010,07,21,13,59,24.80
2010,07,21,14,00,24.80
2010,07,21,14,01,24.90
2010,07,21,14,02,24.90
2010,07,21,14,03,25.00
2010,07,21,14,04,25.10
2010,07,21,14,05,25.10
2010,07,21,14,06,25.10
2010,07,21,14,07,25.10
2010,07,21,14,08,25.20
2010,07,21,14,09,25.20
2010,07,21,14,10,25.20
2010,07,21,14,11,25.30
2010,07,21,14,12,25.30
2010,07,21,14,13,25.30
2010,07,21,14,14,25.40
2010,07,21,14,15,25.40
2010,07,21,14,16,25.40
2010,07,21,14,17,25.40
2010,07,21,14,18,25.40
2010,07,21,14,19,25.50
2010,07,21,14,20,25.50
2010,07,21,14,21,25.60
2010,07,21,14,22,25.60
2010,07,21,14,23,25.60
2010,07,21,14,24,25.60
2010,07,21,14,25,25.60
2010,07,21,14,26,25.70
2010,07,21,14,27,25.60
2010,07,21,14,28,25.60
2010,07,21,14,29,25.60
2010,07,21,14,30,25.60
2010,07,21,14,31,25.50
2010,07,21,14,32,25.50
2010,07,21,14,33,25.60
2010,07,21,14,34,25.70
2010,07,21,14,35,25.80
2010,07,21,14,36,25.80
2010,07,21,14,37,25.90
2010,07,21,14,38,26.00
2010,07,21,14,39,26.10
2010,07,21,14,40,26.10
2010,07,21,14,41,26.20
2010,07,21,14,42,26.30
2010,07,21,14,43,26.30
2010,07,21,14,44,26.40
2010,07,21,14,45,26.40
2010,07,21,14,46,26.40
2010,07,21,14,47,26.40
2010,07,21,14,48,26.50
2010,07,21,14,49,26.60
2010,07,21,14,50,26.60
2010,07,21,14,51,26.60
2010,07,21,14,52,26.50
2010,07,21,14,53,26.50
2010,07,21,14,54,26.50
2010,07,21,14,55,26.60
2010,07,21,14,56,26.60
2010,07,21,14,57,26.70
2010,07,21,14,58,26.70
2010,07,21,14,59,26.80
2010,07,21,15,00,26.80
2010,07,21,15,01,26.90
2010,07,21,15,02,26.90
2010,07,21,15,03,26.90
2010,07,21,15,04,26.90
2010,07,21,15,05,26.90
2010,07,21,15,06,26.80
2010,07,21,15,07,26.80
2010,07,21,15,08,26.80
2010,07,21,15,09,26.70
2010,07,21,15,10,26.70
2010,07,21,15,11,26.70
2010,07,21,15,12,26.70
2010,07,21,15,13,26.70
2010,07,21,15,14,26.70
2010,07,21,15,15,26.70
2010,07,21,15,16,26.70
2010,07,21,15,17,26.80
2010,07,21,15,18,26.90
2010,07,21,15,19,27.00
2010,07,21,15,20,27.00
2010,07,21,15,21,27.20
2010,07,21,15,22,27.20
2010,07,21,15,23,27.30
2010,07,21,15,24,27.30
2010,07,21,15,25,27.40
2010,07,21,15,26,27.50
2010,07,21,15,27,27.60
2010,07,21,15,28,27.60
2010,07,21,15,29,27.60
2010,07,21,15,30,27.60
2010,07,21,15,31,27.50
2010,07,21,15,32,27.50
2010,07,21,15,33,27.40
2010,07,21,15,34,27.30
2010,07,21,15,35,27.30
2010,07,21,15,36,27.30
2010,07,21,15,37,27.20
2010,07,21,15,38,27.10
2010,07,21,15,39,27.10
2010,07,21,15,40,27.10
2010,07,21,15,41,27.20
2010,07,21,15,42,27.20
2010,07,21,15,43,27.20
2010,07,21,15,44,27.20
2010,07,21,15,45,27.20
2010,07,21,15,46,27.20
2010,07,21,15,47,27.20
2010,07,21,15,48,27.30
2010,07,21,15,49,27.20
2010,07,21,15,50,27.20
2010,07,21,15,51,27.00
2010,07,21,15,52,27.00
2010,07,21,15,53,26.90
2010,07,21,15,54,26.80
2010,07,21,15,55,26.70
2010,07,21,15,56,26.60
2010,07,21,15,57,26.60
2010,07,21,15,58,26.50
2010,07,21,15,59,26.50
2010,07,21,16,00,26.50
2010,07,21,16,01,26.50
2010,07,21,16,02,26.50
2010,07,21,16,03,26.60
2010,07,21,16,04,26.60
2010,07,21,16,05,26.60
2010,07,21,16,06,26.50
2010,07,21,16,07,26.40
2010,07,21,16,08,26.40
2010,07,21,16,09,26.50
2010,07,21,16,10,26.50
2010,07,21,16,11,26.60
2010,07,21,16,12,26.60
2010,07,21,16,13,26.60
2010,07,21,16,14,26.70
2010,07,21,16,15,26.70
2010,07,21,16,16,26.60
2010,07,21,16,17,26.60
2010,07,21,16,18,26.50
2010,07,21,16,19,26.40
2010,07,21,16,20,26.30
2010,07,21,16,21,26.30
2010,07,21,16,22,26.20
2010,07,21,16,23,26.20
2010,07,21,16,24,26.30
2010,07,21,16,25,26.40
2010,07,21,16,26,26.40
2010,07,21,16,27,26.30
2010,07,21,16,28,26.30
2010,07,21,16,29,26.30
2010,07,21,16,30,26.30
2010,07,21,16,31,26.40
2010,07,21,16,32,26.50
2010,07,21,16,33,26.60
2010,07,21,16,34,26.70
2010,07,21,16,35,26.80
2010,07,21,16,36,26.80
2010,07,21,16,37,26.90
2010,07,21,16,38,26.90
2010,07,21,16,39,27.00
2010,07,21,16,40,27.00
2010,07,21,16,41,27.00
2010,07,21,16,42,27.00
2010,07,21,16,43,27.10
2010,07,21,16,44,27.10
2010,07,21,16,45,27.10
2010,07,21,16,46,27.10
2010,07,21,16,47,27.10
2010,07,21,16,48,27.10
2010,07,21,16,49,27.10
2010,07,21,16,50,27.10
2010,07,21,16,51,27.10
2010,07,21,16,52,27.10
2010,07,21,16,53,27.00
2010,07,21,16,54,27.00
2010,07,21,16,55,27.00
2010,07,21,16,56,27.10
2010,07,21,16,57,27.10
2010,07,21,16,58,27.10
2010,07,21,16,59,27.10
2010,07,21,17,00,27.00
2010,07,21,17,01,27.10
2010,07,21,17,02,27.10
2010,07,21,17,03,27.10
2010,07,21,17,04,27.10
2010,07,21,17,05,27.10
2010,07,21,17,06,27.10
2010,07,21,17,07,27.00
2010,07,21,17,08,27.00
2010,07,21,17,09,27.00
2010,07,21,17,10,27.00
2010,07,21,17,11,27.00
2010,07,21,17,12,27.00
2010,07,21,17,13,27.10
2010,07,21,17,14,27.10
2010,07,21,17,15,27.10
2010,07,21,17,16,27.10
2010,07,21,17,17,27.20
2010,07,21,17,18,27.20
2010,07,21,17,19,27.20